{"data":{"norad_id":55339,"intl_designator":"2023-013J","name":"STARLINK-5671","alt_names":[],"object_type":"PAYLOAD","status":"ACTIVE","operator":null,"country":"US","launch_date":"2023-01-26","launch_site_code":"AFETR","launch_vehicle":null,"mission":null,"orbit_class":"UNKNOWN","rcs_meters":null,"size_class":null,"mass_kg":null,"dimensions":null,"purposes":["comms"],"wikipedia_slug":null,"has_3d_model":false,"image_url":null,"decayed_at":null,"tle_current":{"epoch":"2026-09-19T13:52:19.909344Z","epoch_age_seconds":176300,"freshness":"STALE","line1":"1 55339U 23013J   26262.57800821 -.00001130  00000+0 -31558-4 0  9995","line2":"2 55339  43.0007 292.0582 0000667 259.9010 100.1766 15.27579380201285","mean_motion":15.2757938,"eccentricity":6.67e-5,"inclination_deg":43.0007,"raan_deg":292.0582,"arg_perigee_deg":259.901,"mean_anomaly_deg":100.1766,"bstar":-3.1558e-5,"rev_number":20128,"period_min":94.266786973781,"perigee_km":482.59331130689,"apogee_km":483.50859377976,"semimajor_km":6861.1879525433,"source":"CELESTRAK","updated_at":"2026-09-21T09:00:33.179616Z"}}}